TimeCDT,TemperatureF,Dew PointF,Humidity,Sea Level PressureIn,VisibilityMPH,Wind Direction,Wind SpeedMPH,Gust SpeedMPH,PrecipitationIn,Events,Conditions,WindDirDegrees,DateUTC
12:52 AM,28.0,21.0,75,30.06,-9999.0,West,3.5,-,N/A,,Unknown,280,2013-03-12 05:52:00
1:52 AM,28.9,19.9,69,30.06,-9999.0,Calm,Calm,-,N/A,,Unknown,0,2013-03-12 06:52:00
2:52 AM,26.1,21.0,81,30.09,-9999.0,Calm,Calm,-,N/A,,Unknown,0,2013-03-12 07:52:00
3:52 AM,23.0,19.0,85,30.09,-9999.0,Calm,Calm,-,N/A,,Unknown,0,2013-03-12 08:52:00
4:52 AM,27.0,19.9,75,30.10,-9999.0,West,3.5,-,N/A,,Unknown,260,2013-03-12 09:52:00
5:52 AM,27.0,19.0,72,30.12,-9999.0,WNW,5.8,-,N/A,,Unknown,300,2013-03-12 10:52:00
6:52 AM,28.0,19.9,72,30.13,-9999.0,NNW,5.8,-,N/A,,Unknown,330,2013-03-12 11:52:00
7:52 AM,27.0,19.9,75,30.14,-9999.0,Calm,Calm,-,N/A,,Unknown,0,2013-03-12 12:52:00
8:52 AM,30.0,21.0,69,30.18,-9999.0,West,6.9,-,N/A,,Unknown,270,2013-03-12 13:52:00
9:52 AM,33.1,24.1,70,30.17,-9999.0,SW,9.2,-,N/A,,Unknown,230,2013-03-12 14:52:00
10:52 AM,37.9,26.1,62,30.19,-9999.0,WSW,8.1,-,N/A,,Unknown,250,2013-03-12 15:52:00
11:52 AM,41.0,25.0,53,30.18,-9999.0,WNW,13.8,23.0,N/A,,Unknown,290,2013-03-12 16:52:00
12:52 PM,39.0,23.0,53,30.21,-9999.0,WNW,8.1,25.3,N/A,,Unknown,290,2013-03-12 17:52:00
1:52 PM,37.9,21.9,53,30.22,-9999.0,West,16.1,23.0,N/A,,Unknown,280,2013-03-12 18:52:00
2:52 PM,37.9,23.0,55,30.22,-9999.0,West,6.9,21.9,N/A,,Unknown,280,2013-03-12 19:52:00
3:52 PM,39.0,23.0,53,30.22,-9999.0,WNW,9.2,18.4,N/A,,Unknown,300,2013-03-12 20:52:00
4:52 PM,37.0,24.1,59,30.24,-9999.0,WNW,16.1,26.5,N/A,,Unknown,300,2013-03-12 21:52:00
5:52 PM,37.0,23.0,57,30.25,-9999.0,WNW,11.5,19.6,N/A,,Unknown,300,2013-03-12 22:52:00
6:52 PM,35.1,21.9,59,30.28,-9999.0,WNW,11.5,25.3,N/A,,Unknown,300,2013-03-12 23:52:00
7:52 PM,34.0,19.9,56,30.29,-9999.0,WNW,13.8,24.2,N/A,,Unknown,300,2013-03-13 00:52:00
8:52 PM,33.1,19.9,59,30.30,-9999.0,WNW,12.7,-,N/A,,Unknown,300,2013-03-13 01:52:00
9:52 PM,32.0,19.0,59,30.32,-9999.0,NW,13.8,21.9,N/A,,Unknown,310,2013-03-13 02:52:00
10:52 PM,30.9,19.9,64,30.33,-9999.0,NW,15.0,20.7,N/A,,Unknown,310,2013-03-13 03:52:00
11:52 PM,30.0,19.9,66,30.35,-9999.0,NW,8.1,-,N/A,,Unknown,310,2013-03-13 04:52:00